Regional Weather Roundup
Issued by NWS

Home | Current Version | Previous Version | Graphics & Text | Print | Product List | Glossary On
Versions: 1 2 3 4 5 6 7 8 9 10 11 12 13 14 15 16 17 18 19 20 21 22 23 24 25 26 27 28 29 30 31 32 33 34 35 36 37 38 39 40 41 42 43 44 45 46 47 48 49 50
000
ASUS43 KLMK 260402
RWRKY
KENTUCKY REGIONAL WEATHER ROUNDUP
NATIONAL WEATHER SERVICE LOUISVILLE KY
1200 AM EDT TUE JUL 26 2016

NOTE "FAIR" INDICATES FEW OR NO CLOUDS BELOW 12,000 FEET
WITH NO SIGNIFICANT WEATHER AND/OR OBSTRUCTIONS TO VISIBILITY.

KYZ001>023-026-027-061>063-070>075-260500-
WESTERN AND SOUTH CENTRAL KENTUCKY

CITY           SKY/WX    TMP DP  RH WIND       PRES   REMARKS
PADUCAH        CLOUDY    77  74  90 W5        29.99R
HENDERSON      PTCLDY    73  70  88 CALM      29.98F
OWENSBORO      CLOUDY    75  75 100 CALM      30.01R
HOPKINSVILLE   CLOUDY    75  73  93 SE5       30.00S
BOWLING GREEN  CLOUDY    76  73  91 W5        30.01S
GLASGOW        NOT AVBL
$$

KYZ024-025-028>034-038-045-046-053-260500-
NORTH CENTRAL KENTUCKY

CITY           SKY/WX    TMP DP  RH WIND       PRES   REMARKS
LOUISVILLE/SDF CLOUDY    78  73  84 SW5       30.00R
LOUISVILLE/LOU CLOUDY    78  73  84 CALM      30.01S
FORT KNOX      CLOUDY    73  73  98 W3        30.01R
$$

KYZ035>037-039>044-047>052-055>060-089>105-260500-
NORTHEAST KENTUCKY

CITY           SKY/WX    TMP DP  RH WIND       PRES   REMARKS
LEXINGTON      MOCLDY    75  73  93 CALM      30.02F
COVINGTON      CLOUDY    77  75  93 CALM      30.01S
FRANKFORT      PTCLDY    74  71  91 CALM      30.00F
$$

KYZ054-064>069-076>088-106>120-260500-
SOUTHEAST KENTUCKY

CITY           SKY/WX    TMP DP  RH WIND       PRES   REMARKS
JACKSON        MOCLDY    75  72  90 CALM      30.05F
LONDON         CLOUDY    73  68  84 SW3       30.05F
SOMERSET       MOCLDY    72  72 100 CALM      30.05F
MIDDLESBORO    PTCLDY    76  70  82 W3        30.07S
MONTICELLO     CLEAR    N/A N/A N/A NE8       30.06F
$$





USA.gov is the U.S. government's official web portal to all federal, state and local government web resources and services.